Time,TemperatureF,DewpointF,PressureIn,WindDirection,WindDirectionDegrees,WindSpeedMPH,WindSpeedGustMPH,Humidity,HourlyPrecipIn,Conditions,Clouds,dailyrainin,SoftwareType,DateUTC
2013-08-13 00:04:00,59.9,55.0,30.03,North,5,0.0,1.0,84,0.00,,,0.00,weatherlink.com 1.10,2013-08-13 07:04:00,
2013-08-13 00:19:00,59.5,55.0,30.02,North,5,0.0,1.0,84,0.00,,,0.00,weatherlink.com 1.10,2013-08-13 07:19:00,
2013-08-13 00:34:00,59.1,55.0,30.03,North,5,0.0,1.0,85,0.00,,,0.00,weatherlink.com 1.10,2013-08-13 07:34:00,
2013-08-13 00:49:00,58.9,55.0,30.03,North,5,0.0,1.0,86,0.00,,,0.00,weatherlink.com 1.10,2013-08-13 07:49:00,
2013-08-13 01:04:00,58.8,55.0,30.03,North,5,0.0,0.0,86,0.00,,,0.00,weatherlink.com 1.10,2013-08-13 08:04:00,
2013-08-13 01:19:00,58.7,55.0,30.03,North,5,0.0,0.0,86,0.00,,,0.00,weatherlink.com 1.10,2013-08-13 08:19:00,
2013-08-13 01:34:00,58.7,55.0,30.03,North,5,0.0,0.0,86,0.00,,,0.00,weatherlink.com 1.10,2013-08-13 08:34:00,
2013-08-13 01:49:00,58.8,55.0,30.03,North,5,0.0,0.0,86,0.00,,,0.00,weatherlink.com 1.10,2013-08-13 08:49:00,
2013-08-13 02:04:00,59.0,55.0,30.03,North,5,0.0,0.0,87,0.00,,,0.00,weatherlink.com 1.10,2013-08-13 09:04:00,
2013-08-13 02:19:00,59.1,55.0,30.04,North,5,0.0,2.0,86,0.00,,,0.00,weatherlink.com 1.10,2013-08-13 09:19:00,
2013-08-13 02:34:00,59.1,55.0,30.04,North,5,0.0,3.0,86,0.00,,,0.00,weatherlink.com 1.10,2013-08-13 09:34:00,
2013-08-13 02:49:00,59.1,55.0,30.03,North,5,2.0,3.0,86,0.00,,,0.00,weatherlink.com 1.10,2013-08-13 09:49:00,
2013-08-13 03:04:00,59.0,55.0,30.04,North,10,0.0,4.0,87,0.00,,,0.00,weatherlink.com 1.10,2013-08-13 10:04:00,
2013-08-13 03:19:00,58.7,55.0,30.04,North,10,0.0,2.0,87,0.00,,,0.00,weatherlink.com 1.10,2013-08-13 10:19:00,
2013-08-13 03:34:00,58.5,55.0,30.05,North,10,0.0,3.0,87,0.00,,,0.00,weatherlink.com 1.10,2013-08-13 10:34:00,
2013-08-13 03:49:00,58.2,54.0,30.05,North,10,0.0,3.0,87,0.00,,,0.00,weatherlink.com 1.10,2013-08-13 10:49:00,
2013-08-13 04:04:00,58.0,55.0,30.05,North,10,0.0,2.0,88,0.00,,,0.00,weatherlink.com 1.10,2013-08-13 11:04:00,
2013-08-13 04:19:00,57.9,54.0,30.05,North,10,0.0,0.0,88,0.00,,,0.00,weatherlink.com 1.10,2013-08-13 11:19:00,
2013-08-13 04:34:00,57.6,54.0,30.04,North,10,0.0,0.0,88,0.00,,,0.00,weatherlink.com 1.10,2013-08-13 11:34:00,
2013-08-13 04:49:00,57.3,54.0,30.04,North,10,0.0,0.0,88,0.00,,,0.00,weatherlink.com 1.10,2013-08-13 11:49:00,
2013-08-13 05:04:00,57.2,54.0,30.04,North,10,0.0,1.0,89,0.00,,,0.00,weatherlink.com 1.10,2013-08-13 12:04:00,
2013-08-13 05:19:00,57.2,54.0,30.05,North,10,0.0,0.0,89,0.00,,,0.00,weatherlink.com 1.10,2013-08-13 12:19:00,
2013-08-13 05:34:00,57.2,54.0,30.04,North,10,0.0,0.0,89,0.00,,,0.00,weatherlink.com 1.10,2013-08-13 12:34:00,
2013-08-13 05:49:00,57.1,54.0,30.04,North,10,0.0,0.0,89,0.00,,,0.00,weatherlink.com 1.10,2013-08-13 12:49:00,
2013-08-13 06:04:00,57.1,54.0,30.05,North,10,0.0,0.0,90,0.00,,,0.00,weatherlink.com 1.10,2013-08-13 13:04:00,
2013-08-13 06:19:00,57.3,54.0,30.05,North,10,0.0,0.0,89,0.00,,,0.00,weatherlink.com 1.10,2013-08-13 13:19:00,
2013-08-13 06:34:00,57.5,54.0,30.05,North,10,0.0,0.0,89,0.00,,,0.00,weatherlink.com 1.10,2013-08-13 13:34:00,
2013-08-13 06:49:00,57.9,54.0,30.05,North,10,0.0,1.0,88,0.00,,,0.00,weatherlink.com 1.10,2013-08-13 13:49:00,
2013-08-13 07:04:00,58.1,55.0,30.05,North,10,0.0,1.0,89,0.00,,,0.00,weatherlink.com 1.10,2013-08-13 14:04:00,
2013-08-13 07:19:00,58.2,55.0,30.05,North,10,0.0,2.0,89,0.00,,,0.00,weatherlink.com 1.10,2013-08-13 14:19:00,
2013-08-13 07:34:00,58.8,55.0,30.05,North,10,0.0,0.0,87,0.00,,,0.00,weatherlink.com 1.10,2013-08-13 14:34:00,
2013-08-13 07:49:00,59.2,55.0,30.05,North,10,0.0,0.0,87,0.00,,,0.00,weatherlink.com 1.10,2013-08-13 14:49:00,
2013-08-13 08:04:00,59.4,55.0,30.05,North,10,0.0,0.0,86,0.00,,,0.00,weatherlink.com 1.10,2013-08-13 15:04:00,
2013-08-13 08:19:00,59.6,56.0,30.05,North,10,0.0,1.0,86,0.00,,,0.00,weatherlink.com 1.10,2013-08-13 15:19:00,
2013-08-13 08:34:00,60.2,56.0,30.05,North,10,0.0,0.0,86,0.00,,,0.00,weatherlink.com 1.10,2013-08-13 15:34:00,
2013-08-13 08:49:00,61.0,56.0,30.05,North,10,0.0,2.0,84,0.00,,,0.00,weatherlink.com 1.10,2013-08-13 15:49:00,
2013-08-13 09:04:00,62.7,57.0,30.05,North,10,0.0,2.0,82,0.00,,,0.00,weatherlink.com 1.10,2013-08-13 16:04:00,
2013-08-13 09:19:00,63.6,57.0,30.05,SSW,192,0.0,4.0,78,0.00,,,0.00,weatherlink.com 1.10,2013-08-13 16:19:00,
2013-08-13 09:34:00,63.6,56.0,30.05,WSW,239,3.0,6.0,75,0.00,,,0.00,weatherlink.com 1.10,2013-08-13 16:34:00,
2013-08-13 09:49:00,64.5,56.0,30.04,South,182,0.0,5.0,74,0.00,,,0.00,weatherlink.com 1.10,2013-08-13 16:49:00,
2013-08-13 10:04:00,65.0,56.0,30.04,South,188,0.0,6.0,72,0.00,,,0.00,weatherlink.com 1.10,2013-08-13 17:04:00,
2013-08-13 10:19:00,66.2,56.0,30.04,West,279,3.0,5.0,70,0.00,,,0.00,weatherlink.com 1.10,2013-08-13 17:19:00,
2013-08-13 10:35:00,66.7,57.0,30.04,WSW,254,3.0,6.0,71,0.00,,,0.00,weatherlink.com 1.10,2013-08-13 17:35:00,
2013-08-13 10:50:00,67.3,57.0,30.04,SSW,206,4.0,7.0,70,0.00,,,0.00,weatherlink.com 1.10,2013-08-13 17:50:00,
2013-08-13 11:05:00,68.9,57.0,30.04,WSW,247,3.0,6.0,67,0.00,,,0.00,weatherlink.com 1.10,2013-08-13 18:05:00,
2013-08-13 11:20:00,69.4,58.0,30.04,NE,46,0.0,5.0,67,0.00,,,0.00,weatherlink.com 1.10,2013-08-13 18:20:00,
2013-08-13 11:35:00,70.8,57.0,30.03,SW,233,5.0,8.0,63,0.00,,,0.00,weatherlink.com 1.10,2013-08-13 18:35:00,
2013-08-13 11:50:00,70.8,58.0,30.03,WNW,292,0.0,6.0,64,0.00,,,0.00,weatherlink.com 1.10,2013-08-13 18:50:00,
2013-08-13 12:05:00,71.0,58.0,30.03,SW,229,0.0,7.0,63,0.00,,,0.00,weatherlink.com 1.10,2013-08-13 19:05:00,
2013-08-13 12:20:00,71.9,58.0,30.03,WNW,292,0.0,3.0,61,0.00,,,0.00,weatherlink.com 1.10,2013-08-13 19:20:00,
2013-08-13 12:35:00,73.2,58.0,30.02,SSE,161,0.0,5.0,60,0.00,,,0.00,weatherlink.com 1.10,2013-08-13 19:35:00,
2013-08-13 12:50:00,73.3,57.0,30.01,SW,218,1.0,6.0,58,0.00,,,0.00,weatherlink.com 1.10,2013-08-13 19:50:00,
2013-08-13 13:05:00,73.2,57.0,30.01,West,269,2.0,8.0,58,0.00,,,0.00,weatherlink.com 1.10,2013-08-13 20:05:00,
2013-08-13 13:20:00,73.7,57.0,30.00,NW,325,0.0,10.0,57,0.00,,,0.00,weatherlink.com 1.10,2013-08-13 20:20:00,
2013-08-13 13:35:00,74.4,57.0,30.00,South,188,0.0,7.0,55,0.00,,,0.00,weatherlink.com 1.10,2013-08-13 20:35:00,
2013-08-13 13:50:00,76.1,58.0,30.00,NE,53,0.0,5.0,54,0.00,,,0.00,weatherlink.com 1.10,2013-08-13 20:50:00,
2013-08-13 14:05:00,76.5,58.0,30.00,West,279,3.0,6.0,53,0.00,,,0.00,weatherlink.com 1.10,2013-08-13 21:05:00,
2013-08-13 14:20:00,76.9,58.0,29.99,SW,236,4.0,7.0,52,0.00,,,0.00,weatherlink.com 1.10,2013-08-13 21:20:00,
2013-08-13 14:35:00,77.5,57.0,29.99,NNE,25,2.0,6.0,50,0.00,,,0.00,weatherlink.com 1.10,2013-08-13 21:35:00,
2013-08-13 14:50:00,78.2,57.0,29.98,WSW,244,2.0,7.0,49,0.00,,,0.00,weatherlink.com 1.10,2013-08-13 21:50:00,
2013-08-13 15:05:00,79.7,57.0,29.98,ENE,57,5.0,7.0,46,0.00,,,0.00,weatherlink.com 1.10,2013-08-13 22:05:00,
2013-08-13 15:20:00,78.8,56.0,29.97,SSW,196,0.0,7.0,45,0.00,,,0.00,weatherlink.com 1.10,2013-08-13 22:20:00,
2013-08-13 15:35:00,79.7,56.0,29.96,North,350,3.0,7.0,45,0.00,,,0.00,weatherlink.com 1.10,2013-08-13 22:35:00,
2013-08-13 15:50:00,78.4,55.0,29.96,West,271,4.0,9.0,45,0.00,,,0.00,weatherlink.com 1.10,2013-08-13 22:50:00,
2013-08-13 16:05:00,78.7,54.0,29.95,West,267,1.0,7.0,42,0.00,,,0.00,weatherlink.com 1.10,2013-08-13 23:05:00,
2013-08-13 16:20:00,79.8,54.0,29.95,NNE,15,0.0,7.0,41,0.00,,,0.00,weatherlink.com 1.10,2013-08-13 23:20:00,
2013-08-13 16:35:00,80.7,54.0,29.95,SW,228,2.0,8.0,40,0.00,,,0.00,weatherlink.com 1.10,2013-08-13 23:35:00,
2013-08-13 16:50:00,80.2,54.0,29.94,WSW,248,0.0,5.0,41,0.00,,,0.00,weatherlink.com 1.10,2013-08-13 23:50:00,
2013-08-13 17:05:00,81.4,55.0,29.94,West,265,1.0,7.0,41,0.00,,,0.00,weatherlink.com 1.10,2013-08-14 00:05:00,
2013-08-13 17:21:00,82.2,57.0,29.93,NNW,346,3.0,4.0,43,0.00,,,0.00,weatherlink.com 1.10,2013-08-14 00:21:00,
2013-08-13 17:36:00,80.5,58.0,29.93,WNW,293,4.0,8.0,46,0.00,,,0.00,weatherlink.com 1.10,2013-08-14 00:36:00,
2013-08-13 17:51:00,80.7,58.0,29.93,NW,311,0.0,7.0,46,0.00,,,0.00,weatherlink.com 1.10,2013-08-14 00:51:00,
2013-08-13 18:06:00,80.8,58.0,29.92,NE,36,2.0,5.0,46,0.00,,,0.00,weatherlink.com 1.10,2013-08-14 01:06:00,
2013-08-13 18:21:00,80.8,58.0,29.92,NE,36,0.0,3.0,46,0.00,,,0.00,weatherlink.com 1.10,2013-08-14 01:21:00,
2013-08-13 18:36:00,81.7,58.0,29.92,WNW,300,0.0,3.0,45,0.00,,,0.00,weatherlink.com 1.10,2013-08-14 01:36:00,
2013-08-13 18:51:00,80.5,58.0,29.91,WSW,240,2.0,5.0,46,0.00,,,0.00,weatherlink.com 1.10,2013-08-14 01:51:00,
2013-08-13 19:06:00,79.1,58.0,29.91,West,276,3.0,6.0,49,0.00,,,0.00,weatherlink.com 1.10,2013-08-14 02:06:00,
2013-08-13 19:21:00,77.3,59.0,29.91,NW,306,0.0,7.0,53,0.00,,,0.00,weatherlink.com 1.10,2013-08-14 02:21:00,
2013-08-13 19:36:00,75.1,59.0,29.90,SSW,212,3.0,5.0,57,0.00,,,0.00,weatherlink.com 1.10,2013-08-14 02:36:00,
2013-08-13 19:51:00,73.3,58.0,29.90,West,267,4.0,5.0,60,0.00,,,0.00,weatherlink.com 1.10,2013-08-14 02:51:00,
2013-08-13 20:06:00,72.1,58.0,29.89,West,280,1.0,4.0,62,0.00,,,0.00,weatherlink.com 1.10,2013-08-14 03:06:00,
2013-08-13 20:21:00,71.3,58.0,29.89,SW,217,0.0,3.0,63,0.00,,,0.00,weatherlink.com 1.10,2013-08-14 03:21:00,
2013-08-13 20:36:00,70.7,57.0,29.89,North,360,2.0,6.0,63,0.00,,,0.00,weatherlink.com 1.10,2013-08-14 03:36:00,
2013-08-13 20:51:00,69.8,57.0,29.89,NNW,339,0.0,6.0,64,0.00,,,0.00,weatherlink.com 1.10,2013-08-14 03:51:00,
2013-08-13 21:06:00,69.0,57.0,29.89,NNW,332,4.0,6.0,65,0.00,,,0.00,weatherlink.com 1.10,2013-08-14 04:06:00,
2013-08-13 21:21:00,68.3,56.0,29.89,NNW,330,0.0,5.0,66,0.00,,,0.00,weatherlink.com 1.10,2013-08-14 04:21:00,
2013-08-13 21:36:00,67.6,57.0,29.88,NNW,344,1.0,5.0,68,0.00,,,0.00,weatherlink.com 1.10,2013-08-14 04:36:00,
2013-08-13 21:51:00,66.9,56.0,29.88,NNW,330,0.0,4.0,69,0.00,,,0.00,weatherlink.com 1.10,2013-08-14 04:51:00,
2013-08-13 22:06:00,66.3,56.0,29.88,NNW,333,0.0,6.0,70,0.00,,,0.00,weatherlink.com 1.10,2013-08-14 05:06:00,
2013-08-13 22:21:00,65.8,56.0,29.88,NNW,338,1.0,5.0,71,0.00,,,0.00,weatherlink.com 1.10,2013-08-14 05:21:00,
2013-08-13 22:36:00,65.3,56.0,29.89,NW,319,0.0,4.0,72,0.00,,,0.00,weatherlink.com 1.10,2013-08-14 05:36:00,
2013-08-13 22:51:00,64.8,56.0,29.88,NW,326,0.0,3.0,72,0.00,,,0.00,weatherlink.com 1.10,2013-08-14 05:51:00,
2013-08-13 23:06:00,64.3,56.0,29.88,NW,326,0.0,2.0,74,0.00,,,0.00,weatherlink.com 1.10,2013-08-14 06:06:00,
2013-08-13 23:21:00,63.8,55.0,29.88,NW,326,0.0,2.0,74,0.00,,,0.00,weatherlink.com 1.10,2013-08-14 06:21:00,
2013-08-13 23:36:00,63.4,55.0,29.88,NW,326,0.0,1.0,75,0.00,,,0.00,weatherlink.com 1.10,2013-08-14 06:36:00,
2013-08-13 23:51:00,63.0,55.0,29.88,NW,326,0.0,1.0,76,0.00,,,0.00,weatherlink.com 1.10,2013-08-14 06:51:00,